Location: North Wawona
(37.5477°N, 119.6446°W)
Time: 09:57:47
(UTC+00:00)

Cosmos 1818 - Pass Details

Date: 03 August 2024
Orbit: 770 x 801 km, 65.0° (Epoch: 10 September)

Event Time Altitude Azimuth Distance (km) Brightness Sun altitude
Exits shadow 12:02:05 - 194° (SSW) 2,642 5.8 -11.8°
Reaches altitude 10° 12:02:53 10° 193° (SSW) 2,343 5.6 -11.7°
Maximum altitude 12:08:09 57° 116° (ESE) 934 4.1 -10.8°
Drops below altitude 10° 12:13:30 10° 39° (NE) 2,374 7.3 -9.9°
Sets 12:15:58 0° 35° (NE) 3,311 8.1 -9.5°
